Location: Walton
(43.6794°N, 81.3017°W)
Time: 00:21:35
(UTC+00:00)

Cosmos 2180 Rocket - Pass Details

Date: 07 March 2026
Orbit: 952 x 1004 km, 82.9° (Epoch: 14 April)

Event Time Altitude Azimuth Distance (km) Brightness Sun altitude
Rises 11:01:35 0° 134° (SE) 3,696 8.3 -9.8°
Reaches altitude 10° 11:05:16 10° 112° (ESE) 2,743 8.1 -9.2°
Maximum altitude 11:08:38 15° 79° (E) 2,379 7.9 -8.6°
Drops below altitude 10° 11:11:59 10° 47° (NE) 2,733 7.6 -8.0°
Sets 11:15:37 0° 25° (NNE) 3,675 7.9 -7.3°
